Zurück zum Katalog

COSMOS 1275 DEB

AktivPO
NORAD 13020·DEBRIS·🇷🇺 Russia

Gestartet Jun 4, 1981 von Plesetsk Cosmodrome

Loading…

Nächste Überflüge (nächste 24 Stunden)

TLE

AktuellSource: Space-Track

Epoche: Sep 14, 2026, 04:10 UTC

1 13020U 81053ES  26257.17368319  .00000439  00000-0  39182-3 0  9995
2 13020  82.6931 152.8446 0111426 268.3209 245.3921 13.79912955242658

Verfolge COSMOS 1275 DEB in Echtzeit mit AllMySat

Download on the App Store